Location: Peebles
(55.6412°N, 3.1714°W)
Time: 09:25:24
(UTC+01:00)

FENGYUN 1C DEB - Pass Details

Date: 12 July 2022
Orbit: 757 x 834 km, 99.1° (Epoch: 04 August)

Event Time Altitude Azimuth Distance (km) Brightness Sun altitude
Rises 01:35:56 0° 108° (ESE) 3,323 ? -12.3°
Reaches altitude 10° 01:38:54 10° 92° (E) 2,381 ? -12.2°
Maximum altitude 01:42:29 19° 48° (NE) 1,818 ? -12.2°
Drops below altitude 10° 01:46:02 10° 5° (N) 2,355 ? -12.1°
Sets 01:48:56 0° 348° (NNW) 3,274 ? -12.1°
